Location: Pl�tzky
(52.0521°N, 11.8020°E)
Time: 08:13:04
(UTC+00:00)

Cosmos 1666 Rocket - Pass Details

Date: 22 November 2019
Orbit: 603 x 634 km, 82.5° (Epoch: 13 December)

Event Time Altitude Azimuth Distance (km) Brightness Sun altitude
Rises 16:41:30 0° 346° (NNW) 2,894 7.0 -13.2°
Reaches altitude 10° 16:43:46 10° 342° (NNW) 1,979 6.2 -13.5°
Maximum altitude 16:48:03 55° 265° (W) 735 4.3 -14.2°
Drops below altitude 10° 16:52:15 10° 188° (S) 1,950 6.4 -14.8°
Sets 16:54:29 0° 184° (S) 2,846 7.2 -15.1°
